WetterOnline ( http://www.wetteronline.de )

Wetter aktuell Altmark

Aktuelles Wetter: Gardelegen (48m)

6-stündlich | Neueste Meldungen
Ortszeit Temperatur Wetter
Di, 22.01. 7:00 -4.1° C bedeckt
Di, 22.01. 1:00 -2.3° C bewölkt
Mo, 21.01. 19:00 -1.8° C bedeckt
Mo, 21.01. 13:00 -2.6° C wolkenlos
Mo, 21.01. 7:00 -6.4° C bedeckt
Mo, 21.01. 1:00 -5.1° C bedeckt
So, 20.01. 19:00 -4.6° C fast wolkenlos
So, 20.01. 13:00 -2.0° C fast wolkenlos
Ortszeit Temperatur Wetter
Di, 22.01. 10:00 -3.0° C leicht bewölkt
Di, 22.01. 9:40 -3.0° C leicht bewölkt
Di, 22.01. 9:30 -3.6° C leicht bewölkt
Di, 22.01. 9:20 -3.6° C leicht bewölkt
Di, 22.01. 9:10 -3.6° C fast wolkenlos
Di, 22.01. 9:00 -4.1° C wolkenlos
Di, 22.01. 8:50 -4.1° C wolkenlos
Di, 22.01. 8:30 -3.3° C wolkig
Di, 22.01. 8:00 -3.5° C bedeckt
Di, 22.01. 7:30 -3.7° C bedeckt
Di, 22.01. 7:00 -4.1° C bedeckt
Ortszeit Relative Feuchte Sichtweite
Di, 22.01. 7:00 89% 5.0 km
Di, 22.01. 1:00 79% 10 km
Mo, 21.01. 19:00 80% 9 km
Mo, 21.01. 13:00 85% 6 km
Mo, 21.01. 7:00 93% 3.3 km
Mo, 21.01. 1:00 96% 1.1 km
So, 20.01. 19:00 93% 5.0 km
So, 20.01. 13:00 85% 4.5 km
Ortszeit Relative Feuchte Sichtweite
Di, 22.01. 10:00 76% 10 km
Di, 22.01. 9:40 82% -
Di, 22.01. 9:30 87% 6 km
Di, 22.01. 9:20 87% -
Di, 22.01. 9:10 89% -
Di, 22.01. 9:00 92% 4.0 km
Di, 22.01. 8:50 92% -
Di, 22.01. 8:30 91% 5.0 km
Di, 22.01. 8:00 91% 5.0 km
Di, 22.01. 7:30 90% 5.0 km
Di, 22.01. 7:00 89% 5.0 km
Ortszeit Niederschlagsmenge Niederschlagsart
Di, 22.01. 7:00 0.1 l/m2 in 12 Std. -
Di, 22.01. 1:00 0.1 l/m2 in 6 Std. Schnee
Mo, 21.01. 19:00 0.0 l/m2 in 12 Std. -
Mo, 21.01. 13:00 0.0 l/m2 in 6 Std. -
Mo, 21.01. 7:00 0.1 l/m2 in 12 Std. Schnee
Mo, 21.01. 1:00 0.1 l/m2 in 6 Std. Schnee
So, 20.01. 19:00 0.0 l/m2 in 12 Std. -
So, 20.01. 13:00 0.0 l/m2 in 6 Std. -
Ortszeit Niederschlagsmenge Niederschlagsart
Di, 22.01. 10:00 0.0 l/m2 in 1 Std. -
Di, 22.01. 9:40 keine Meldung -
Di, 22.01. 9:30 0.0 l/m2 in 1 Std. -
Di, 22.01. 9:20 keine Meldung -
Di, 22.01. 9:10 keine Meldung -
Di, 22.01. 9:00 0.0 l/m2 in 1 Std. -
Di, 22.01. 8:50 keine Meldung -
Di, 22.01. 8:30 0.0 l/m2 in 1 Std. -
Di, 22.01. 8:00 0.0 l/m2 in 1 Std. -
Di, 22.01. 7:30 0.0 l/m2 in 1 Std. -
Di, 22.01. 7:00 0.0 l/m2 in 1 Std. -
Ortszeit Stärke Spitze Richtung
km/h Bft. km/h Grad Sektor
Di, 22.01. 7:00 4 1 11 340° N
Di, 22.01. 1:00 7 2 14 180° S
Mo, 21.01. 19:00 7 2 18 200° S
Mo, 21.01. 13:00 7 2 18 250° W
Mo, 21.01. 7:00 7 2 14 200° S
Mo, 21.01. 1:00 4 1 11 140° SO
So, 20.01. 19:00 2 1 15 50° NO
So, 20.01. 13:00 4 1 11 350° N
Ortszeit Stärke Spitze Richtung
km/h Bft. km/h Grad Sektor
Di, 22.01. 10:00 7 2 14 130° SO
Di, 22.01. 9:40 6 1 - 140° SO
Di, 22.01. 9:30 6 1 11 130° SO
Di, 22.01. 9:20 6 1 - 130° SO
Di, 22.01. 9:10 4 1 - 140° SO
Di, 22.01. 9:00 4 1 7 180° S
Di, 22.01. 8:50 4 1 - 180° S
Di, 22.01. 8:30 4 1 4 100° O
Di, 22.01. 8:00 0 0 7 - -
Di, 22.01. 7:30 0 0 4 - -
Di, 22.01. 7:00 4 1 7 340° N
Ortszeit Untergrenze Bedeckung Gattung
total tief tief mittel hoch
Di, 22.01. 7:00 240 m 8/8 8/8 - - -
Di, 22.01. 1:00 1230 m 7/8 7/8 - - -
Mo, 21.01. 19:00 1290 m 8/8 8/8 - - -
Mo, 21.01. 13:00 - 0/8 0/8 - - -
Mo, 21.01. 7:00 30 m 8/8 8/8 - - -
Mo, 21.01. 1:00 <30 m 8/8 8/8 - - -
So, 20.01. 19:00 <30 m 0/8 0/8 - - -
So, 20.01. 13:00 840 m 1/8 1/8 - - -
Ortszeit Bedeckungsgrad in Achtel und Wolkenuntergrenze
Di, 22.01. 10:00 2(330m)
Di, 22.01. 9:40 2(330m)
Di, 22.01. 9:30 2(420m) 4(450m)
Di, 22.01. 9:20 2(420m)
Di, 22.01. 9:10 1(450m)
Di, 22.01. 9:00 keine Wolken
Di, 22.01. 8:50 keine Wolken
Di, 22.01. 8:30 7(330m) 4(1230m)
Di, 22.01. 8:00 8(300m)
Di, 22.01. 7:30 8(240m)
Di, 22.01. 7:00 8(240m)
Ortszeit Luftdruck NN (hPa) Tendenz (hPa in 3 Std.)
Di, 22.01. 7:00 1014 - 1,7
Di, 22.01. 1:00 1018 - 0,9
Mo, 21.01. 19:00 1019 - 1,1
Mo, 21.01. 13:00 1023 - 1,2
Mo, 21.01. 7:00 1024 - 0,5
Mo, 21.01. 1:00 1025 + 0,7
So, 20.01. 19:00 1022 + 1,3
So, 20.01. 13:00 1020 + 0,6
Ortszeit Luftdruck NN (hPa) Tendenz (hPa in 3 Std.)
Di, 22.01. 10:00 1013 - 0,8
Di, 22.01. 9:40 1014 keine Meldung
Di, 22.01. 9:30 1014 - 0,8
Di, 22.01. 9:20 1014 keine Meldung
Di, 22.01. 9:10 1014 keine Meldung
Di, 22.01. 9:00 1014 - 0,9
Di, 22.01. 8:50 1014 keine Meldung
Di, 22.01. 8:30 1014 - 1,1
Di, 22.01. 8:00 1014 - 1,0
Di, 22.01. 7:30 1014 - 1,4
Di, 22.01. 7:00 1014 - 1,7
Ortszeit Schneehöhe (cm)
Di, 22.01. 7:00 0
Di, 22.01. 1:00 0
Mo, 21.01. 19:00 0
Mo, 21.01. 13:00 0
Mo, 21.01. 7:00 0
Mo, 21.01. 1:00 0
So, 20.01. 19:00 0
So, 20.01. 13:00 0
Ortszeit Schneehöhe (cm)
Di, 22.01. 10:00 0
Di, 22.01. 9:40 0
Di, 22.01. 9:30 0
Di, 22.01. 9:20 0
Di, 22.01. 9:10 0
Di, 22.01. 9:00 0
Di, 22.01. 8:50 0
Di, 22.01. 8:30 0
Di, 22.01. 8:00 0
Di, 22.01. 7:30 0
Di, 22.01. 7:00 0
Link zu dieser Seite / Seite empfehlen

Das Wetter in ...